Starlink 30758

operational
NORAD ID: 58133 Int'l Des: 2023-162 Owner: SPXS Country: US Constellation: starlink
LEOCIRCULAR

关于 Starlink 30758

正在加载描述...

实时位置

正在加载3D地球...

即将过境

高度历史

Altitude vs Time

uPlot chart will show altitude changes over time

两行轨道根数

1 58133U 23162R 25304.52417428 .00000739 00000-0 69789-4 0 9993
2 58133 43.0015 114.6366 0001406 271.4580 88.6101 15.02536275112879
Epoch: Oct 31, 2025 • Age: 12 hours

当前状态

高度 559.4 km
速度 7.58 km/s
星下点 -3.90°S, 113.03°W
发射日期 Oct 22, 2023
运行时间 2 years
类型 internet

技术详情

分类 Payload
质量 730.00 kg
干质量 700.00 kg
总质量 730.00 kg
长度 0.30 m
直径 4.10 m
跨度 29.00 m
形状 Box + pan
制造商 SPXS
平台类型 Starlink V2M
阶段状态 In Orbit
所有者/国家 SPXS/US

大型星座

Loading constellations...